Location: Halfweg
(53.1000°N, 6.6000°E)
Time: 11:21:35
(UTC+00:00)

NOSS 3-4 (A) - Pass Details

Date: 15 May 2026
Orbit: 769 x 1442 km, 63.4° (Epoch: 10 January)

Event Time Altitude Azimuth Distance (km) Brightness Sun altitude
Rises 20:39:07 0° 312° (NW) 3,623 8.7 -9.0°
Reaches altitude 10° 20:41:30 10° 311° (NW) 2,758 7.5 -9.2°
Maximum altitude 20:48:02 76° 227° (SW) 1,151 3.9 -9.8°
Enters shadow 20:55:06 13° 144° (SE) 3,004 5.4 -10.5°
